Location: Beugnon
(47.6222°N, 3.7850°E)
Time: 09:24:22
(UTC+00:00)

NOSS 3-4 (A) - Pass Details

Date: 09 April 2020
Orbit: 895 x 1317 km, 63.4° (Epoch: 21 May)

Event Time Altitude Azimuth Distance (km) Brightness Sun altitude
Rises 19:24:46 0° 318° (NW) 3,826 8.0 -10.1°
Reaches altitude 10° 19:27:18 10° 316° (NW) 2,926 7.2 -10.5°
Maximum altitude 19:34:14 68° 235° (SW) 1,245 4.2 -11.6°
Drops below altitude 10° 19:41:53 10° 155° (SSE) 3,209 5.7 -12.7°
Enters shadow 19:42:33 - 154° (SSE) 3,438 5.9 -12.8°
